Location: Mountain Grove
(34.0887°N, 86.6172°W)
Time: 15:21:14
(UTC+00:00)

Cosmos 841 Rocket - Pass Details

Date: 14 July 2020
Orbit: 747 x 772 km, 74.0° (Epoch: 12 August)

Event Time Altitude Azimuth Distance (km) Brightness Sun altitude
Rises 09:34:10 0° 343° (NNW) 3,205 7.0 -13.3°
Reaches altitude 10° 09:36:32 10° 345° (NNW) 2,280 6.2 -13.0°
Maximum altitude 09:41:43 83° 74° (ENE) 766 3.6 -12.1°
Drops below altitude 10° 09:46:54 10° 162° (SSE) 2,282 5.8 -11.2°
Sets 09:49:15 0° 163° (SSE) 3,208 6.5 -10.8°
